TimePDT,TemperatureF,Dew PointF,Humidity,Sea Level PressureIn,VisibilityMPH,Wind Direction,Wind SpeedMPH,Gust SpeedMPH,PrecipitationIn,Events,Conditions,WindDirDegrees,DateUTC
12:53 AM,44.1,39.0,82,30.16,10.0,Calm,Calm,-,N/A,,Clear,0,2014-03-13 07:53:00
1:53 AM,43.0,37.9,82,30.15,10.0,Calm,Calm,-,N/A,,Clear,0,2014-03-13 08:53:00
2:53 AM,42.1,37.0,82,30.15,10.0,Calm,Calm,-,N/A,,Clear,0,2014-03-13 09:53:00
3:53 AM,41.0,36.0,82,30.14,10.0,Calm,Calm,-,N/A,,Clear,0,2014-03-13 10:53:00
4:53 AM,39.0,35.1,86,30.15,10.0,Calm,Calm,-,N/A,,Clear,0,2014-03-13 11:53:00
5:53 AM,39.0,35.1,86,30.15,10.0,Calm,Calm,-,N/A,,Clear,0,2014-03-13 12:53:00
6:53 AM,37.9,34.0,86,30.15,10.0,Calm,Calm,-,N/A,,Clear,0,2014-03-13 13:53:00
7:53 AM,37.9,35.1,89,30.15,5.0,Calm,Calm,-,N/A,,Scattered Clouds,0,2014-03-13 14:53:00
8:01 AM,39.0,35.1,86,30.15,4.0,Calm,Calm,-,N/A,,Mostly Cloudy,0,2014-03-13 15:01:00
8:29 AM,39.0,36.0,89,30.15,8.0,Calm,Calm,-,N/A,,Scattered Clouds,0,2014-03-13 15:29:00
8:53 AM,41.0,37.0,86,30.16,9.0,Calm,Calm,-,N/A,,Clear,0,2014-03-13 15:53:00
9:53 AM,42.1,39.0,89,30.18,5.0,SSW,5.8,-,N/A,,Clear,200,2014-03-13 16:53:00
10:53 AM,-9999,-9999,N/A,30.16,-9999.0,North,-9999.0,-,N/A,,Unknown,0,2014-03-13 17:53:00
11:53 AM,-9999,-9999,N/A,30.16,-9999.0,North,-9999.0,-,N/A,,Unknown,0,2014-03-13 18:53:00
12:53 PM,59.0,41.0,51,30.14,10.0,North,-9999.0,-,N/A,,Unknown,0,2014-03-13 19:53:00
1:53 PM,63.0,35.1,35,30.13,10.0,North,8.1,-,N/A,,Clear,360,2014-03-13 20:53:00
2:53 PM,64.9,37.0,36,30.10,10.0,NNE,6.9,-,N/A,,Clear,20,2014-03-13 21:53:00
3:53 PM,64.9,35.1,33,30.10,10.0,NNE,5.8,-,N/A,,Clear,20,2014-03-13 22:53:00
4:53 PM,66.0,35.1,32,30.09,10.0,North,8.1,-,N/A,,Clear,10,2014-03-13 23:53:00
5:53 PM,64.9,39.9,40,30.08,10.0,North,10.4,-,N/A,,Clear,360,2014-03-14 00:53:00
6:53 PM,62.1,39.0,43,30.09,10.0,NNW,8.1,-,N/A,,Clear,330,2014-03-14 01:53:00
7:53 PM,61.0,39.9,46,30.09,10.0,NNW,8.1,-,N/A,,Scattered Clouds,330,2014-03-14 02:53:00
8:53 PM,57.9,41.0,53,30.10,10.0,North,3.5,-,N/A,,Overcast,350,2014-03-14 03:53:00
9:53 PM,55.9,42.1,60,30.11,10.0,North,3.5,-,N/A,,Scattered Clouds,10,2014-03-14 04:53:00
10:53 PM,53.1,42.1,66,30.11,10.0,Calm,Calm,-,N/A,,Clear,0,2014-03-14 05:53:00
11:53 PM,51.1,42.1,71,30.12,10.0,Calm,Calm,-,N/A,,Clear,0,2014-03-14 06:53:00